Regional Weather Roundup
Issued by NWS

Home | Current Version | Previous Version | Text Only | Print | Product List | Glossary On
Versions: 1 2 3 4 5 6 7 8 9 10 11 12 13 14 15 16 17 18 19 20 21 22 23 24 25 26 27
000
ASUS44 KJAN 180810
RWRMS

MISSISSIPPI HOURLY WEATHER ROUNDUP
NATIONAL WEATHER SERVICE JACKSON MS
200 AM CST THU JAN 18 2018

NOTE: "FAIR: INDICATES FEW OR NO CLOUDS BELOW 12,000 FEET WITH NO
SIGNIFICANT WEATHER AND/OR OBSTRUCTIONS TO VISIBILITY.

MSZ001>002-007>008-010>013-018>021-025>028-034>036-180900-
NORTHWEST MISSISSIPPI

CITY           SKY/WX    TMP DP  RH WIND       PRES   REMARKS
BATESVILLE     FAIR      10   6  84 CALM      30.62F
CLARKSDALE     CLEAR     14  14 100 CALM      30.62F
CLEVELAND      FAIR      16  15  94 CALM      30.62F
GREENWOOD      FAIR      13  10  88 CALM      30.61F
GREENVILLE     FAIR      12   8  84 CALM      30.61F
OXFORD         FAIR       9   7  92 CALM      30.60F
TUNICA           N/A     14  12  92 CALM      30.62S
WINONA         FAIR      13  11  88 CALM      30.58F
$$

MSZ003>006-009-014>017-022>024-029>033-037>039-180900-
NORTHEAST MISSISSIPPI

CITY           SKY/WX    TMP DP  RH WIND       PRES   REMARKS
ABERDEEN         N/A     12  12 100 CALM      30.63R
COLUMBUS AFB   CLEAR     14   9  79 N3        30.61F
CORINTH        FAIR      10   7  85 CALM      30.58F
GOLDN TRIANGLE FAIR      14   9  80 N7        30.59F WCI   4
STARKVILLE     FAIR      14  12  92 CALM      30.61S
TUPELO         FAIR      13   8  81 CALM      30.60F
$$

MSZ040-058-180900-
CENTRAL MISSISSIPPI

CITY           SKY/WX    TMP DP  RH WIND       PRES   REMARKS
JACKSON INTL   FAIR      15  13  91 CALM      30.58S
JACKSON HAWKNS FAIR      17  13  84 CALM      30.59S
MADISON        FAIR      14  12  92 CALM      30.59S
MERIDIAN KEY   FAIR      16  12  84 SW3       30.58F
MERIDIAN NAS   FAIR      16  10  77 NW6       30.58S WCI   7
RAYMOND          N/A     14  12  92 CALM      30.60S
VICKSBURG VKS  SUNNY     16  12  86 CALM      30.63S
$$

MSZ059>079-180900-
SOUTH MISSISSIPPI

CITY           SKY/WX    TMP DP  RH WIND       PRES   REMARKS
COLUMBIA       FAIR      16  12  86 CALM      30.63R
HATTIESBURG    FAIR      19  14  81 N6        30.59F WCI  11
LAUREL         FAIR      17  11  78 N3        30.59S
MCCOMB         FAIR      17  12  80 CALM      30.59R
NATCHEZ        FAIR      15  13  91 CALM      30.62F
PINE BELT      FAIR      16  12  84 N5        30.58F WCI   9
$$

MSZ080>082-180900-
COASTAL MISSISSIPPI

CITY           SKY/WX    TMP DP  RH WIND       PRES   REMARKS
BILOXI         FAIR      24  12  59 N8        30.56F WCI  15
PASCAGOULA     FAIR      23  11  60 N6        30.57S WCI  16
GULFPORT       FAIR      24  12  60 N5        30.57F WCI  18
$$

LAZ007>009-015>016-023>026-180900-
NORTHEAST LOUISIANA

CITY           SKY/WX    TMP DP  RH WIND       PRES   REMARKS
BASTROP        FAIR      13  12  97 CALM      30.63S
TALLULAH/VBURG FAIR      14  12  92 N5        30.62F WCI   6
VIDALIA          N/A     17  15  93 MISG      30.64S
$$




USA.gov is the U.S. government's official web portal to all federal, state and local government web resources and services.